sat.trackr.live / text

‹ back to catalog

ANIK F3

NORAD 31102 · 2007-009A

PAYLOAD ACTIVE UNKNOWN

§ Identity

Operator
Country
CA
Launch date
2007-04-09
Launch site
TYMSC
Launch vehicle
Mass (kg)
RCS (m²)
28.22

Purposes: comms

External: N2YO · Heavens-Above · Gunter

§ Orbital elements

Epoch: 2026-05-25T03:42:38.615040Z

Period
1,436.09 min
Inclination
1.1401°
Eccentricity
0.0002728
Mean motion
1.00272489 rev/d
Perigee alt
35,774.9 km
Apogee alt
35,797.9 km
Semi-major
42,164.5 km
B*
0.0000e+0
RAAN
84.1050°
Arg perigee
338.4414°
Mean anomaly
117.1501°
Rev number
4,633

§ Raw data

ANIK F31 31102U 07009A   26145.15461360 -.00000003  00000+0  00000+0 0  99992 31102   1.1401  84.1050 0002728 338.4414 117.1501  1.00272489 46335

JSON: /api/v1/satellites/31102 · /tle

For live sub-satellite position, see the globe view (requires WebGL).

§ Visibility from observer

Set your observer location to see the next 7 days of passes ≥ 10°. The values pass through the URL so the page stays shareable.

No JS? Fill the form by hand. The geolocation button needs JavaScript.